Tracking 33198 objects as of 14-Feb-2026
HD Live streaming from Space Station
objects crossing your sky now

KUIPER-00248

Track KUIPER-00248 now!
10-day predictions
KUIPER-00248 is classified as:


NORAD ID: 67153
Int'l Code: 2025-301W
Perigee: 456.5 km
Apogee: 470.5 km
Inclination: 51.9 °
Period: 93.7 minutes
Semi major axis: 6834 km
RCS: Unknown
Launch date: December 15, 2025
Source: United States (US)
Launch site: AIR FORCE EASTERN TEST RANGE (AFETR)
Your satellite tracking list
Your tracking list is empty




NASA's NSSDC Master Catalog

Two Line Element Set (TLE):
1 67153U 25301W   26044.77748258  .00032652  00000-0  90693-3 0  9995
2 67153  51.8659 181.1987 0010296 312.0391  47.9718 15.36540721 10225
Source of the keplerian elements: AFSPC